星链-5091 (STARLINK-5091 )

导读 | 豆包AI

STARLINK-5091是美国SpaceX公司星链(Starlink)卫星互联网星座的一员,于2022年12月28日发射。星链项目旨在通过低轨卫星星座为全球提供高速低延迟互联网服务,尤其覆盖传统基建难以抵达的偏远区域。该卫星属于量产型低轨通信卫星,搭载Ku/Ka波段通信载荷,配备氪工质霍尔推进器,具备自主避撞能力,寿命末期会主动离轨坠入大气层烧毁,服务于全球宽带网络覆盖的星座建设目标。

基本信息
目录编号:
54873
目录名称:
STARLINK-5091
国际标识:
2022-177BF
轨道中心:
EARTH
卫星名称:
星链-5091
卫星全名:
星链-5091 (STARLINK-5091 )
卫星状态:
在轨 (已飞行1173 天)
发射日期:
2022-12-28 UTC
国别 :
美国 (US)
星等 :
--
轨道信息
数据来源 国际轨道数据
星历时间: 2026-03-15T14:00:01+0800
7小时前
查看轨道信息
半长轴: 6908.963km
偏心率: 0.0000772
轨道倾角: 42.999°
近地点辐角 269.812°
升交点赤经 89.461°
平近点角 290.403°
近地点: 530.292km
远地点: 531.36km
周期: 95.253分钟
每日圈数: 15.117622
详细信息
固有亮度:
5
最大亮度:
2.5
卫星平台:
Starlink v1.5
覆盖范围:
全球
运营商:
太空探索技术公司
运营商所在国:
美国
制造商(研发单位):
太空探索技术公司
制造商所在国:
美国
使用方式:
暂无
卫星简介
星链(Starlink)计划是由太空探索技术公司(SpaceX)提出的一个巨型低轨卫星互联网星座项目,计划在2019年至2024年间在太空搭建由约1.2万颗卫星组成的“星链”网络,其中1584颗将部署在地球上空550千米处的近地轨道,并从2020年开始工作。该卫星仍在工作。
2D轨道图
3D轨道图
轨道高度分析图
轨道倾角分析图
轨道综合分析图
查看轨道综合分析图